QPF
0.01 0.01 0.01 0.01 0.02 0.03 0.03 0.02 0.03 0.04 0.05 0.05 0.04 0.04 0.02 0.01 0.01 0.00 0.01 0.01 0.01 0.01 0.02 0.02 0.03 0.05 0.08 0.06 0.04 0.03 0.02 0.02 0.03 0.04 0.04 0.03 0.04 0.06
0.01 0.01 0.02 0.01 0.02 0.02 0.02 0.02 0.02 0.03 0.05 0.04 0.03 0.03 0.02 0.02 0.02 0.01 0.01 0.01 0.01 0.01 0.01 0.02 0.01 0.01 0.03 0.02 0.02 0.02 0.03 0.02 0.02 0.02 0.02 0.02 0.02 0.03
0.01 0.01 0.01 0.01 0.01 0.02 0.01 0.01 0.01 0.02 0.03 0.03 0.02 0.02 0.03 0.03 0.02 0.01 0.01 0.02 0.01 0.01 0.01 0.01 0.00 0.01 0.03 0.03 0.03 0.04 0.03 0.02 0.01 0.02 0.01 0.01 0.01 0.02
0.01 0.01 0.01 0.00 0.01 0.01 0.01 0.01 0.01 0.02 0.02 0.02 0.02 0.02 0.02 0.01 0.01 0.01 0.01 0.01 0.02 0.01 0.01 0.00 0.00 0.01 0.04 0.06 0.04 0.02 0.01 0.02 0.01 0.01 0.02 0.02 0.01 0.01
0.00 0.01 0.01 0.01 0.01 0.02 0.01 0.02 0.02 0.01 0.02 0.03 0.03 0.02 0.01 0.01 0.01 0.01 0.01 0.01 0.01 0.01 0.01 0.01 0.01 0.01 0.02 0.04 0.04 0.02 0.01 0.02 0.02 0.01 0.01 0.01 0.01 0.01
0.00 0.00 0.01 0.01 0.01 0.01 0.01 0.01 0.02 0.02 0.01 0.01 0.02 0.02 0.01 0.01 0.01 0.02 0.02 0.01 0.01 0.01 0.00 0.00 0.00 0.00 0.01 0.02 0.02 0.01 0.01 0.01 0.02 0.01 0.01 0.00 0.00 0.00
0.00 0.00 0.00 0.01 0.01 0.01 0.00 0.01 0.01 0.02 0.01 0.01 0.01 0.01 0.01 0.02 0.03 0.04 0.05 0.02 0.01 0.00 0.01 0.01 0.00 0.00 0.00 0.00 0.01 0.02 0.01 0.01 0.02 0.01 0.00 0.00 0.00 0.00
0.00 0.00 0.00 0.01 0.01 0.00 0.00 0.00 0.01 0.02 0.02 0.02 0.02 0.02 0.02 0.03 0.03 0.02 0.01 0.00 0.00 0.00 0.01 0.01 0.01 0.00 0.00 0.00 0.00 0.01 0.02 0.01 0.01 0.01 0.01 0.00 0.00 0.00
0.00 0.00 0.01 0.00 0.00 0.00 0.00 0.00 0.01 0.01 0.01 0.01 0.01 0.01 0.01 0.01 0.01 0.01 0.01 0.01 0.00 0.00 0.00 0.00 0.01 0.00 0.00 0.00 0.00 0.00 0.00 0.01 0.01 0.01 0.01 0.01 0.01 0.01
0.00 0.00 0.01 0.00 0.00 0.00 0.00 0.00 0.00 0.00 0.00 0.00 0.00 0.00 0.00 0.00 0.00 0.01 0.01 0.00 0.00 0.00 0.00 0.00 0.00 0.00 0.00 0.00 0.00 0.00 0.00 0.00 0.00 0.01 0.01 0.01 0.01 0.01
0.00 0.00 0.00 0.00 0.00 0.00 0.00 0.00 0.00 0.00 0.00 0.00 0.00 0.00 0.00 0.00 0.00 0.00 0.00 0.00 0.00 0.00 0.00 0.00 0.00 0.00 0.00 0.00 0.00 0.00 0.00 0.00 0.00 0.00 0.00 0.00 0.00 0.00
0.00 0.00 0.00 0.00 0.00 0.00 0.01 0.00 0.00 0.00 0.00 0.00 0.00 0.00 0.00 0.00 0.00 0.00 0.00 0.00 0.00 0.00 0.00 0.00 0.00 0.00 0.00 0.00 0.00 0.00 0.00 0.00 0.00 0.00 0.00 0.00 0.00 0.00
0.00 0.00 0.00 0.00 0.00 0.00 0.00 0.00 0.00 0.00 0.00 0.00 0.00 0.00 0.00 0.00 0.00 0.00 0.00 0.00 0.00 0.00 0.00 0.00 0.00 0.00 0.00 0.00 0.00 0.00 0.00 0.00 0.00 0.00 0.00 0.00 0.00 0.00
0.00 0.00 0.00 0.00 0.00 0.00 0.00 0.00 0.00 0.00 0.00 0.00 0.00 0.00 0.00 0.00 0.00 0.00 0.00 0.00 0.00 0.00 0.00 0.00 0.00 0.00 0.00 0.00 0.00 0.00 0.00 0.00 0.00 0.00 0.00 0.00 0.00 0.00
0.00 0.01 0.01 0.01 0.00 0.00 0.00 0.00 0.00 0.00 0.00 0.00 0.00 0.00 0.00 0.00 0.00 0.00 0.00 0.00 0.00 0.00 0.00 0.00 0.00 0.00 0.00 0.00 0.00 0.00 0.00 0.00 0.00 0.00 0.00 0.00 0.00 0.00
0.00 0.01 0.01 0.01 0.01 0.00 0.00 0.00 0.00 0.00 0.00 0.00 0.00 0.00 0.00 0.00 0.00 0.00 0.00 0.00 0.00 0.00 0.00 0.00 0.00 0.00 0.00 0.00 0.00 0.00 0.00 0.00 0.00 0.00 0.00 0.00 0.00 0.00
0.00 0.00 0.00 0.00 0.00 0.01 0.00 0.00 0.00 0.00 0.00 0.00 0.00 0.00 0.00 0.00 0.00 0.00 0.00 0.00 0.00 0.00 0.00 0.00 0.00 0.00 0.00 0.00 0.00 0.00 0.00 0.00 0.00 0.00 0.00 0.00 0.00 0.00
0.00 0.00 0.00 0.01 0.01 0.01 0.01 0.01 0.01 0.01 0.01 0.00 0.00 0.00 0.00 0.01 0.00 0.00 0.00 0.00 0.00 0.00 0.00 0.00 0.00 0.00 0.00 0.00 0.00 0.00 0.00 0.00 0.00 0.00 0.00 0.00 0.00 0.00
0.00 0.00 0.00 0.00 0.00 0.00 0.00 0.00 0.01 0.01 0.00 0.00 0.00 0.00 0.00 0.00 0.00 0.00 0.00 0.00 0.00 0.00 0.00 0.00 0.00 0.00 0.00 0.00 0.00 0.00 0.00 0.00 0.00 0.00 0.00 0.00 0.00 0.00
0.01 0.01 0.01 0.01 0.00 0.01 0.01 0.01 0.01 0.00 0.00 0.00 0.00 0.00 0.00 0.00 0.00 0.00 0.00 0.00 0.01 0.01 0.00 0.00 0.00 0.00 0.00 0.00 0.00 0.00 0.00 0.00 0.00 0.00 0.00 0.00 0.00 0.00
0.01 0.01 0.01 0.01 0.01 0.01 0.00 0.00 0.00 0.00 0.00 0.00 0.00 0.00 0.00 0.00 0.00 0.00 0.00 0.00 0.01 0.00 0.00 0.00 0.00 0.00 0.00 0.00 0.00 0.00 0.00 0.00 0.00 0.00 0.00 0.00 0.00 0.00
0.01 0.01 0.01 0.00 0.00 0.00 0.00 0.00 0.00 0.00 0.00 0.00 0.00 0.00 0.00 0.00 0.00 0.00 0.00 0.00 0.00 0.00 0.00 0.00 0.00 0.00 0.00 0.00 0.00 0.00 0.00 0.00 0.00 0.00 0.00 0.00 0.01 0.01
0.01 0.00 0.00 0.00 0.00 0.00 0.00 0.00 0.00 0.00 0.00 0.00 0.00 0.00 0.00 0.00 0.00 0.00 0.00 0.00 0.00 0.00 0.00 0.00 0.00 0.00 0.00 0.00 0.00 0.00 0.01 0.01 0.01 0.01 0.01 0.01 0.01 0.00
MSLP
1018.80 1018.82 1018.89 1018.98 1019.10 1019.23 1019.35 1019.46 1019.55 1019.61 1019.65 1019.68 1019.70 1019.72 1019.73 1019.73 1019.70 1019.64 1019.53 1019.37 1019.16 1018.91 1018.61 1018.29 1017.96 1017.62 1017.27 1016.93 1016.59 1016.26 1015.92 1015.60 1015.31 1015.07 1014.89 1014.81 1014.84 1014.97
1019.06 1019.06 1019.08 1019.14 1019.22 1019.32 1019.41 1019.49 1019.54 1019.58 1019.59 1019.59 1019.60 1019.61 1019.63 1019.66 1019.68 1019.69 1019.66 1019.60 1019.49 1019.33 1019.13 1018.89 1018.62 1018.34 1018.04 1017.74 1017.43 1017.13 1016.82 1016.53 1016.27 1016.05 1015.89 1015.80 1015.81 1015.90
1019.40 1019.37 1019.37 1019.40 1019.46 1019.53 1019.59 1019.63 1019.66 1019.66 1019.64 1019.61 1019.58 1019.58 1019.59 1019.61 1019.66 1019.70 1019.73 1019.73 1019.70 1019.63 1019.51 1019.36 1019.17 1018.95 1018.72 1018.48 1018.22 1017.96 1017.71 1017.45 1017.22 1017.01 1016.84 1016.73 1016.69 1016.72
1019.79 1019.75 1019.74 1019.76 1019.80 1019.85 1019.89 1019.91 1019.91 1019.88 1019.83 1019.76 1019.70 1019.66 1019.64 1019.65 1019.68 1019.72 1019.77 1019.80 1019.82 1019.80 1019.74 1019.66 1019.54 1019.40 1019.25 1019.08 1018.90 1018.71 1018.51 1018.31 1018.11 1017.92 1017.76 1017.62 1017.53 1017.50
1020.22 1020.18 1020.17 1020.18 1020.22 1020.26 1020.29 1020.30 1020.28 1020.23 1020.15 1020.06 1019.96 1019.88 1019.82 1019.78 1019.78 1019.79 1019.82 1019.84 1019.85 1019.85 1019.82 1019.78 1019.73 1019.66 1019.58 1019.49 1019.40 1019.29 1019.18 1019.05 1018.90 1018.75 1018.60 1018.45 1018.33 1018.24
1020.68 1020.64 1020.62 1020.64 1020.67 1020.71 1020.74 1020.75 1020.72 1020.66 1020.57 1020.46 1020.33 1020.21 1020.11 1020.02 1019.96 1019.92 1019.89 1019.87 1019.85 1019.82 1019.79 1019.76 1019.73 1019.71 1019.69 1019.68 1019.68 1019.66 1019.64 1019.59 1019.52 1019.42 1019.30 1019.17 1019.04 1018.91
1021.11 1021.06 1021.05 1021.06 1021.10 1021.14 1021.17 1021.19 1021.16 1021.10 1021.01 1020.89 1020.75 1020.60 1020.46 1020.33 1020.21 1020.11 1020.01 1019.92 1019.83 1019.76 1019.69 1019.64 1019.61 1019.60 1019.63 1019.67 1019.74 1019.81 1019.86 1019.90 1019.91 1019.88 1019.81 1019.71 1019.60 1019.47
1021.47 1021.42 1021.41 1021.42 1021.46 1021.50 1021.54 1021.56 1021.54 1021.49 1021.41 1021.29 1021.15 1021.00 1020.84 1020.67 1020.51 1020.34 1020.18 1020.02 1019.86 1019.71 1019.59 1019.49 1019.43 1019.42 1019.45 1019.52 1019.63 1019.75 1019.88 1019.98 1020.06 1020.09 1020.08 1020.03 1019.94 1019.84
1021.73 1021.69 1021.68 1021.70 1021.73 1021.77 1021.81 1021.83 1021.82 1021.78 1021.72 1021.61 1021.49 1021.34 1021.18 1021.00 1020.81 1020.61 1020.39 1020.17 1019.95 1019.74 1019.55 1019.40 1019.29 1019.24 1019.25 1019.32 1019.43 1019.57 1019.72 1019.86 1019.98 1020.06 1020.09 1020.08 1020.04 1019.97
1021.87 1021.85 1021.85 1021.87 1021.91 1021.95 1021.99 1022.01 1022.01 1021.98 1021.93 1021.85 1021.74 1021.61 1021.46 1021.29 1021.10 1020.88 1020.64 1020.39 1020.12 1019.86 1019.62 1019.41 1019.26 1019.16 1019.12 1019.15 1019.23 1019.35 1019.48 1019.62 1019.74 1019.83 1019.88 1019.90 1019.89 1019.85
1021.90 1021.91 1021.93 1021.97 1022.02 1022.07 1022.11 1022.13 1022.13 1022.11 1022.06 1022.00 1021.91 1021.81 1021.68 1021.53 1021.35 1021.14 1020.91 1020.65 1020.37 1020.09 1019.82 1019.57 1019.37 1019.22 1019.13 1019.09 1019.11 1019.17 1019.25 1019.34 1019.43 1019.49 1019.54 1019.56 1019.56 1019.54
1021.84 1021.89 1021.96 1022.03 1022.10 1022.16 1022.20 1022.22 1022.22 1022.20 1022.16 1022.10 1022.03 1021.94 1021.84 1021.71 1021.56 1021.38 1021.17 1020.93 1020.66 1020.39 1020.11 1019.86 1019.63 1019.44 1019.29 1019.19 1019.14 1019.11 1019.12 1019.13 1019.15 1019.16 1019.17 1019.17 1019.16 1019.15
1021.71 1021.82 1021.94 1022.05 1022.16 1022.23 1022.29 1022.31 1022.31 1022.28 1022.24 1022.18 1022.11 1022.04 1021.95 1021.85 1021.72 1021.57 1021.40 1021.19 1020.97 1020.72 1020.47 1020.22 1019.99 1019.78 1019.59 1019.44 1019.31 1019.21 1019.13 1019.06 1019.00 1018.94 1018.89 1018.85 1018.83 1018.81
1021.53 1021.71 1021.89 1022.06 1022.20 1022.31 1022.38 1022.41 1022.41 1022.37 1022.32 1022.26 1022.19 1022.11 1022.03 1021.94 1021.84 1021.72 1021.58 1021.42 1021.24 1021.04 1020.83 1020.62 1020.40 1020.20 1020.00 1019.81 1019.63 1019.47 1019.32 1019.17 1019.04 1018.92 1018.82 1018.74 1018.69 1018.66
1021.33 1021.58 1021.82 1022.04 1022.22 1022.36 1022.46 1022.50 1022.51 1022.47 1022.42 1022.35 1022.27 1022.19 1022.10 1022.02 1021.93 1021.84 1021.73 1021.62 1021.48 1021.34 1021.18 1021.01 1020.84 1020.66 1020.47 1020.28 1020.08 1019.89 1019.69 1019.49 1019.31 1019.14 1019.00 1018.90 1018.82 1018.78
1021.13 1021.43 1021.72 1021.98 1022.21 1022.39 1022.51 1022.58 1022.60 1022.58 1022.52 1022.45 1022.37 1022.28 1022.20 1022.12 1022.04 1021.96 1021.88 1021.80 1021.71 1021.61 1021.51 1021.39 1021.27 1021.13 1020.98 1020.81 1020.63 1020.43 1020.22 1020.01 1019.81 1019.62 1019.47 1019.34 1019.26 1019.22
1020.95 1021.28 1021.61 1021.91 1022.17 1022.38 1022.54 1022.63 1022.68 1022.68 1022.64 1022.59 1022.51 1022.44 1022.36 1022.28 1022.21 1022.14 1022.08 1022.02 1021.96 1021.91 1021.85 1021.79 1021.71 1021.63 1021.53 1021.40 1021.25 1021.08 1020.90 1020.70 1020.50 1020.32 1020.17 1020.04 1019.96 1019.91
1020.86 1021.20 1021.54 1021.86 1022.15 1022.38 1022.57 1022.70 1022.78 1022.81 1022.81 1022.78 1022.74 1022.68 1022.62 1022.56 1022.50 1022.45 1022.40 1022.36 1022.33 1022.30 1022.27 1022.25 1022.22 1022.17 1022.12 1022.04 1021.93 1021.81 1021.66 1021.49 1021.32 1021.16 1021.01 1020.89 1020.81 1020.75
1020.91 1021.25 1021.58 1021.91 1022.20 1022.45 1022.66 1022.82 1022.94 1023.02 1023.07 1023.09 1023.09 1023.07 1023.05 1023.01 1022.98 1022.94 1022.90 1022.87 1022.85 1022.83 1022.82 1022.82 1022.81 1022.80 1022.78 1022.73 1022.66 1022.57 1022.46 1022.33 1022.18 1022.03 1021.89 1021.77 1021.67 1021.59
1021.16 1021.48 1021.81 1022.12 1022.41 1022.67 1022.90 1023.09 1023.25 1023.37 1023.47 1023.55 1023.60 1023.63 1023.65 1023.66 1023.65 1023.63 1023.61 1023.58 1023.56 1023.54 1023.53 1023.52 1023.52 1023.51 1023.50 1023.47 1023.42 1023.35 1023.25 1023.13 1022.99 1022.85 1022.69 1022.55 1022.41 1022.28
1021.65 1021.96 1022.27 1022.56 1022.84 1023.10 1023.34 1023.55 1023.74 1023.91 1024.06 1024.18 1024.29 1024.38 1024.44 1024.48 1024.51 1024.51 1024.50 1024.48 1024.45 1024.42 1024.39 1024.36 1024.34 1024.31 1024.28 1024.24 1024.18 1024.09 1023.99 1023.85 1023.70 1023.53 1023.34 1023.15 1022.95 1022.75
1022.39 1022.69 1022.99 1023.27 1023.54 1023.79 1024.03 1024.25 1024.45 1024.65 1024.83 1024.99 1025.14 1025.27 1025.37 1025.45 1025.49 1025.52 1025.51 1025.49 1025.45 1025.40 1025.34 1025.28 1025.21 1025.15 1025.08 1024.99 1024.89 1024.78 1024.63 1024.46 1024.26 1024.04 1023.80 1023.53 1023.26 1022.98
1023.35 1023.65 1023.94 1024.21 1024.47 1024.71 1024.94 1025.16 1025.37 1025.57 1025.76 1025.94 1026.10 1026.25 1026.38 1026.47 1026.53 1026.56 1026.56 1026.53 1026.47 1026.39 1026.30 1026.20 1026.09 1025.97 1025.84 1025.70 1025.55 1025.37 1025.17 1024.94 1024.68 1024.39 1024.07 1023.74 1023.38 1023.00
Thickness
5700 5700 5699 5698 5697 5696 5695 5694 5691 5687 5685 5685 5685 5683 5682 5681 5679 5679 5679 5677 5677 5677 5677 5677 5677 5677 5678 5678 5679 5680 5681 5682 5684 5685 5685 5686 5686 5686
5697 5698 5696 5697 5695 5693 5692 5692 5692 5689 5685 5684 5683 5682 5680 5680 5678 5678 5676 5675 5674 5673 5673 5673 5673 5673 5673 5673 5674 5674 5676 5677 5678 5679 5680 5680 5680 5679
5698 5697 5695 5694 5692 5691 5690 5690 5689 5688 5683 5683 5682 5681 5680 5679 5677 5676 5675 5674 5673 5671 5670 5669 5669 5669 5668 5668 5668 5669 5670 5672 5673 5674 5674 5674 5673 5672
5696 5695 5693 5691 5690 5690 5688 5687 5686 5686 5684 5679 5680 5679 5678 5677 5675 5674 5674 5673 5671 5668 5667 5666 5665 5664 5664 5664 5663 5664 5665 5666 5667 5667 5667 5667 5666 5665
5694 5693 5692 5690 5688 5687 5686 5685 5684 5683 5682 5680 5677 5676 5675 5675 5673 5672 5672 5670 5669 5667 5665 5663 5662 5661 5660 5659 5658 5658 5659 5659 5660 5660 5660 5659 5658 5657
5691 5690 5689 5688 5687 5685 5684 5683 5681 5680 5679 5677 5676 5674 5673 5672 5671 5670 5669 5668 5667 5666 5663 5661 5660 5658 5657 5655 5654 5653 5653 5652 5652 5652 5652 5651 5650 5649
5689 5687 5685 5682 5680 5680 5680 5679 5678 5677 5676 5674 5672 5671 5670 5668 5667 5666 5665 5665 5665 5663 5661 5660 5659 5658 5656 5653 5650 5648 5647 5646 5645 5644 5643 5643 5642 5640
5686 5684 5681 5678 5675 5673 5672 5672 5671 5672 5672 5670 5669 5667 5666 5665 5663 5661 5660 5659 5659 5659 5656 5656 5655 5654 5652 5650 5645 5643 5641 5639 5638 5636 5635 5634 5633 5632
5683 5681 5678 5675 5673 5674 5670 5667 5666 5664 5664 5666 5665 5664 5662 5660 5658 5657 5656 5653 5652 5653 5650 5651 5651 5649 5647 5644 5640 5637 5635 5632 5630 5629 5627 5626 5624 5623
5678 5677 5675 5673 5671 5670 5670 5668 5666 5663 5660 5660 5660 5659 5656 5654 5652 5650 5649 5648 5648 5647 5644 5644 5646 5643 5641 5638 5634 5631 5628 5626 5623 5621 5619 5618 5616 5615
5673 5671 5671 5669 5664 5663 5664 5664 5662 5659 5655 5652 5651 5649 5647 5645 5643 5643 5643 5642 5642 5642 5639 5637 5638 5637 5635 5633 5629 5625 5622 5619 5616 5613 5611 5609 5607 5606
5668 5666 5662 5661 5658 5657 5659 5658 5656 5655 5653 5650 5647 5645 5643 5640 5637 5636 5636 5635 5635 5635 5632 5628 5629 5628 5628 5628 5623 5619 5615 5612 5609 5606 5603 5600 5598 5596
5664 5662 5658 5654 5652 5651 5651 5651 5648 5647 5646 5645 5643 5641 5638 5636 5633 5630 5628 5626 5625 5624 5622 5619 5618 5617 5615 5616 5615 5611 5606 5603 5601 5599 5596 5592 5589 5586
5658 5656 5652 5648 5646 5644 5643 5641 5639 5638 5640 5638 5635 5633 5631 5628 5625 5622 5619 5617 5615 5613 5610 5607 5606 5603 5602 5603 5603 5601 5597 5593 5591 5588 5586 5583 5580 5577
5651 5647 5644 5642 5640 5638 5634 5633 5632 5633 5632 5630 5627 5624 5622 5619 5616 5613 5611 5608 5606 5603 5599 5596 5594 5592 5590 5590 5589 5588 5586 5584 5580 5576 5574 5571 5569 5567
5644 5640 5637 5635 5633 5631 5629 5628 5626 5624 5623 5621 5618 5615 5613 5609 5607 5604 5602 5599 5597 5595 5590 5586 5582 5580 5578 5577 5575 5574 5573 5571 5568 5564 5561 5559 5556 5554
5641 5638 5635 5632 5630 5627 5625 5622 5619 5617 5613 5611 5608 5606 5603 5601 5597 5594 5590 5589 5587 5585 5581 5576 5571 5568 5565 5563 5562 5560 5558 5555 5552 5549 5546 5545 5543 5541
5634 5633 5630 5627 5624 5622 5619 5615 5611 5608 5605 5602 5599 5596 5593 5590 5587 5584 5580 5577 5575 5572 5569 5564 5560 5558 5556 5553 5546 5545 5543 5540 5537 5533 5531 5530 5530 5527
5627 5626 5623 5620 5617 5614 5611 5607 5604 5599 5595 5592 5589 5586 5582 5579 5576 5573 5569 5565 5562 5559 5555 5551 5547 5543 5542 5542 5539 5529 5526 5524 5522 5519 5516 5514 5514 5512
5620 5618 5615 5611 5608 5605 5601 5598 5594 5590 5586 5582 5578 5575 5572 5569 5565 5561 5557 5553 5549 5546 5542 5537 5532 5527 5524 5523 5523 5519 5511 5508 5505 5503 5501 5499 5498 5495
5612 5609 5605 5602 5598 5595 5591 5588 5584 5580 5576 5572 5568 5564 5561 5557 5553 5549 5545 5539 5535 5533 5529 5524 5518 5511 5508 5506 5507 5507 5501 5493 5488 5485 5483 5482 5482 5481
5603 5600 5596 5592 5589 5585 5581 5577 5574 5570 5565 5561 5557 5553 5548 5544 5540 5536 5532 5528 5523 5519 5515 5510 5504 5499 5496 5493 5492 5491 5488 5482 5476 5470 5466 5462 5460 5461
5595 5591 5587 5583 5579 5575 5571 5567 5563 5559 5555 5550 5546 5541 5536 5532 5527 5523 5518 5514 5510 5505 5501 5496 5491 5486 5482 5478 5475 5473 5470 5467 5463 5460 5456 5450 5444 5441